Погода в Бишкеке

Погода в Бишкеке : погода сейчас, прогноз погоды и архив. Всё, что Вы хотите узнать о погоде в Бишкеке!

Поиск расширенной информации на нашем сайте:

Другие новости

Новости СМИ2

Главная страница сайта

Новости сайта

03.07.2017

Напоминаем, что на нашем специализированном сайте Метеоцентр.Азия вы можете получить высокодетализированные автоматические прогнозы погоды по пунктам России, СНГ и мира в авиационном формате (включающие направление и скорость ветра, видимость, явления погоды, количество и форму облачности, нижнюю и верхнюю границу облачности).

Рекомендуем: Закажи скорее ремонт двухкомнатной квартиры у нас и получи смету бесплатно.

Погода в Бишкеке - сегодня

Время (UTC), дата Ветер
(°,м/с) 
Видим.   Явления Облачность Т
(°С)
Тd
(°С)
f(%) Тe
(°С)
Pmin
(гПа)
dP
(гПа)
Po
(мм)
O2
(г/м3)
Тmin Tmax R s Состояние
почвы
21 17.04.18 270 (З) н/о  ливневой дождь  10/10 300 м кучево-дожд. 
[Cb cap]
+8.4 +6.4 87 +6  1020.1  3.1  699  272           
00 18.04.18 270 (З) н/о  слаб. ливневой дождь  10/10 300 м кучево-дожд. 
[Cb cap]
+5.5 +3.3 86 +4  1024.5  2.3  694  273           
03 18.04.18 280 (З) 10 км  ливневой дождь  10/10 300 м кучево-дожд. 
[Cb cap]
+4.3 +2.8 90 +3  1027.5  2.4  703  278           
06 18.04.18 280 (З) 1-4  10 км  ливневой дождь  10/10 300 м кучево-дожд. 
[Cb cap]
+6 +3.9 86 +7  1027.7  0.7  704  277           
09 18.04.18 280 (З) 2-6  10 км    10/8 600 м кучево-дожд., средняя 
[Cb cap|Ac trans]
+7.6 +2.5 70 +8  1027.1  -0.1  703  275           
12 18.04.18 180 (Ю) 2-3  10 км  {ливн. осадки}  10/6 600 м кучево-дожд., средняя 
[Cb cap|Ac trans]
+8 +2.3 67 +8  1027  703  275           
15 18.04.18 220 (ЮЗ) 1-2  н/о    10/5 600 м кучево-дожд., средняя 
[Cb cap|Ac trans]
+7.6 +2.3 69 +9  1027.6  0.5  704  275    +8.2       
18 18.04.18 100 (В) н/о    10/3 600 м кучево-дожд., средняя, верхняя 
[Cb cap|Ac trans|Ci fib]
+7.1 +3.2 76 +8  1027.3  -0.5  703  276    +8.2     
21 18.04.18 тихо ()   н/о    10/6 600 м кучево-дожд., средняя 
[Cb cap|Ac trans]
+6.5 +3.4 81 +7  1025.4  -1.9  702  276           
00 19.04.18 140 (ЮВ) 1-2  н/о    10/8 600 м кучево-дожд., средняя 
[Cb cap|Ac trans]
+6.6 +3.3 79 +8  1024.3  -0.9  701  275           
03 19.04.18 090 (В) 20000 м    10/0 средняя 
[Ac trans]
+8.8 +2.7 66 +10  1023.3  -0.4  701  273           
06 19.04.18 140 (ЮВ) 20000 м    8/3 600 м кучево-дожд., средняя 
[Cb cap|Ac trans]
+12.5 +0 42 +14  1021.4  -0.6  701  270           
09 19.04.18 360 (С) 20000 м    8/5 1000 м верхняя 
[Cu hum|Ci fib]
+13.1 -1.7 36 +14  1020.2  -0.9  700  269          частично
покрыта
пылью 
12 19.04.18 270 (З) 1-3  20000 м    9/4 600 м кучево-дожд., средняя, верхняя 
[Cb cap|Ac trans|Ci fib]
+12.7 -0.5 40 +14  1020.8  0.3  700  269           
15 19.04.18 180 (Ю) н/о    3/0 средняя 
[Ac trans]
+10 +4 66 +11  1022.1  0.6  701  272    +14.4       
18 19.04.18 тихо ()   н/о    4/0 средняя, верхняя 
[Ac trans|Ci fib]
+6.5 +2.4 75 +7  1023.4  0.1  701  275    +14.4       
21 19.04.18 180 (Ю) н/о    3/0 верхняя 
[Ci fib]
+6.3 +0.7 67 +6  1022.3  -1.1  700  275           
00 20.04.18 тихо () -1  н/о    3/0 верхняя 
[Ci fib]
+3.5 +0.9 83 +4  1022.7  -0.5  699  278           
03 20.04.18 тихо ()   20000 м    3/0 верхняя 
[Ci fib]
+10.4 +1.9 56 +10  1020.4  -0.1  699  271  +2.7         
06 20.04.18 350 (С) 20000 м    3/3 1000 м 
[Cu hum]
+13.8 +3 48 +14  1017.3  -1.7  698  267           
09 20.04.18 310 (СЗ) 20000 м    3/3 1000 м средняя 
[Cu hum|Ac trans]
+15.3 +3.8 46 +16  1014.9  -1.8  697  265           
12 20.04.18 310 (СЗ) 2-5  20000 м    8/3 1000 м средняя 
[Cu hum|Ac trans]
+16.2 +4.5 46 +17  1013.7  -0.8  696  264           
15 20.04.18 260 (З) 2-3  н/о    3/0 средняя 
[Ac trans]
+12.3 +4.5 59 +13  1015.3  0.3  696  268    +16.8       
18 20.04.18 130 (ЮВ) н/о    3/0 верхняя 
[Ci fib]
+9.7 +3.8 67 +10  1014.6  -1.3  695  270    +16.8       
21 20.04.18 тихо () -2  н/о    8/0 средняя 
[Ac trans]
+7.9 +3.4 73 +8  1015.1  -0.1  695  272           
Время (UTC), дата Ветер
(°,м/с) 
Видим.   Явления Облачность Т
(°С)
Тd
(°С)
f(%) Тe
(°С)
Pmin
(гПа)
dP
(гПа)
Po
(мм)
O2
(г/м3)
Тmin Tmax R s Состояние
почвы

Для получения пояснительной информации подведите курсор к названию столбца.

ПОГОДА в Бишкеке - архив

Всё, что Вы хотите узнать о погоде в Бишкеке - удобно и подробно!

Выберите нужную дату (начиная с 1 января 2015* года) и нажмите кнопку "Найти".
Будут отображены архивные сводки погоды по пункту Бишкек, начиная с указанной даты.


Отображать данные в формате CSV (для использования в таблицах Excel)


Внимание! Наш архив погоды предназначен исключительно для личного некоммерческого использования в познавательных целях. Если Вам необходимы официальные справки о состоянии погоды (для производственных, юридических, коммерческих и т.п. целей), обращайтесь в органы Росгидромета.

*Примечание: данная дата относится к архиву по метеостанциям СССР (Россия, СНГ, Балтия).
Архив по метеостанциям Зарубежной Европы и Азии (кроме Китая) хранится 10 дней, по другим регионам земного шара (Китай, Африка, Америка, Австралия, Океания) - 1 день.

Бишкек - район местоположения метеостанции


Название, широта, долгота, высота метеостанции:
Бишкек (город) 42.9°ш. 74.5°д. 760 м над ур. моря [Кыргызстан]

Дополнительная информация

В oтличие oт бoльшинства пoгoдных сайтoв мы публикуем пoдрoбную метеoинфoрмацию в детальнoм прoфессиoнальнoм фoрмате.

Характеристики температуры и влажнoсти вoздуха измеряются на высoте 2 м в тени вдали oт зданий и деревьев.
Скoрoсть ветра измеряется на высoте 10 м (на урoвне рoста челoвека скoрoсть ветра ниже в 1.5-2 раза). Если метеoстанция нахoдится в гoрoде или в лесу, тo скoрoсть ветра занижена на 2-4 м/с пo сравнению с oткрытым местoм. Скoрoсть ветра над акватoриями крупных рек и oзёр, а также на вершинах хoлмoв на 2-5 м/с выше, чем в oбычных услoвиях.
Атмoсфернoе давление в разных тoчках местнoсти мoжет значительнo oтличаться oт давления на метеoстанции, в зависимoсти oт услoвий рельефа (при пoдъёме на 10 м давление пoнижается примернo на 1 мм рт.ст.).